sat.trackr.live / text

‹ back to catalog

STARLINK-3752

NORAD 52312 · 2022-041BD

PAYLOAD ACTIVE UNKNOWN

§ Identity

Operator
Country
US
Launch date
2022-04-21
Launch site
AFETR
Launch vehicle
Mass (kg)
RCS (m²)

Purposes: comms

External: N2YO · Heavens-Above · Gunter

§ Orbital elements

Epoch: 2026-05-25T03:53:30.591168Z

Period
95.44 min
Inclination
53.2152°
Eccentricity
0.0001410
Mean motion
15.08842487 rev/d
Perigee alt
538.8 km
Apogee alt
540.7 km
Semi-major
6,917.9 km
B*
7.9391e-6
RAAN
105.7709°
Arg perigee
82.8027°
Mean anomaly
277.3125°
Rev number
22,741

§ Raw data

STARLINK-37521 52312U 22041BD  26145.16215962 -.00000162  00000+0  79391-5 0  99952 52312  53.2152 105.7709 0001410  82.8027 277.3125 15.08842487227415

JSON: /api/v1/satellites/52312 · /tle

For live sub-satellite position, see the globe view (requires WebGL).

§ Visibility from observer

Set your observer location to see the next 7 days of passes ≥ 10°. The values pass through the URL so the page stays shareable.

No JS? Fill the form by hand. The geolocation button needs JavaScript.